�������l�o���
Date,Time,MP-1(��Sv/h),MP-2(��Sv/h),MP-3(��Sv/h),MP-4(��Sv/h),MP-5(��Sv/h),MP-6(��Sv/h),MP-7(��Sv/h),MP-8(��Sv/h),����,����(m/s),���J
2019/07/06,00:00,0.731,1.034,0.700,1.274,0.916,0.425,0.733,0.698,��쓌,0.9,��
2019/07/06,00:10,0.732,1.036,0.699,1.278,0.916,0.425,0.732,0.697,�쓌,1.2,��
2019/07/06,00:20,0.732,1.037,0.701,1.275,0.914,0.427,0.733,0.697,�쓌,1.7,��
2019/07/06,00:30,0.731,1.037,0.699,1.278,0.917,0.425,0.733,0.696,���쓌,1.2,��
2019/07/06,00:40,0.732,1.038,0.698,1.276,0.914,0.426,0.732,0.696,���쓌,2.0,��
2019/07/06,00:50,0.732,1.035,0.701,1.276,0.916,0.426,0.732,0.699,�쓌,2.8,��
2019/07/06,01:00,0.733,1.035,0.701,1.277,0.917,0.424,0.733,0.697,�쓌,3.1,��
2019/07/06,01:10,0.733,1.037,0.700,1.276,0.917,0.425,0.734,0.699,���쓌,3.2,��
2019/07/06,01:20,0.732,1.037,0.699,1.276,0.915,0.426,0.730,0.699,���쓌,3.6,��
2019/07/06,01:30,0.732,1.036,0.701,1.275,0.915,0.426,0.733,0.697,��,3.4,��
2019/07/06,01:40,0.732,1.035,0.698,1.276,0.915,0.426,0.732,0.698,��,2.3,��
2019/07/06,01:50,0.731,1.033,0.699,1.276,0.914,0.426,0.735,0.697,��,2.0,��
2019/07/06,02:00,0.729,1.034,0.700,1.274,0.915,0.428,0.733,0.698,��,2.3,��
2019/07/06,02:10,0.730,1.034,0.698,1.276,0.916,0.426,0.732,0.697,���k��,2.3,��
2019/07/06,02:20,0.730,1.034,0.698,1.276,0.917,0.426,0.732,0.697,���k��,2.5,��
2019/07/06,02:30,0.731,1.034,0.699,1.276,0.918,0.425,0.732,0.697,���k��,2.0,��
2019/07/06,02:40,0.730,1.037,0.699,1.276,0.917,0.426,0.733,0.698,���k��,3.0,��
2019/07/06,02:50,0.731,1.037,0.699,1.275,0.918,0.424,0.733,0.699,���k��,2.5,��
2019/07/06,03:00,0.731,1.032,0.698,1.276,0.915,0.428,0.733,0.699,���k��,2.5,��
2019/07/06,03:10,0.732,1.033,0.698,1.275,0.917,0.426,0.733,0.697,���k��,3.1,��
2019/07/06,03:20,0.731,1.034,0.699,1.277,0.917,0.426,0.734,0.699,���k��,3.1,��
2019/07/06,03:30,0.730,1.035,0.700,1.277,0.918,0.426,0.735,0.697,���k��,3.2,��
2019/07/06,03:40,0.731,1.037,0.699,1.275,0.916,0.426,0.733,0.698,���k��,3.3,��
2019/07/06,03:50,0.731,1.033,0.701,1.276,0.917,0.428,0.734,0.698,�k��,3.0,��
2019/07/06,04:00,0.731,1.036,0.700,1.276,0.915,0.426,0.733,0.698,�k��,3.5,��
2019/07/06,04:10,0.731,1.034,0.702,1.277,0.916,0.426,0.734,0.699,�k��,3.6,��
2019/07/06,04:20,0.732,1.034,0.699,1.274,0.917,0.427,0.733,0.697,�k��,3.3,��
2019/07/06,04:30,0.733,1.032,0.698,1.275,0.916,0.426,0.733,0.697,���k��,3.3,��
2019/07/06,04:40,0.733,1.034,0.699,1.275,0.916,0.425,0.732,0.699,�k��,3.3,��
2019/07/06,04:50,0.731,1.037,0.701,1.274,0.918,0.426,0.732,0.700,�k��,2.8,��
2019/07/06,05:00,0.732,1.031,0.699,1.276,0.917,0.426,0.733,0.698,�k��,3.7,��
2019/07/06,05:10,0.730,1.031,0.700,1.277,0.916,0.426,0.732,0.698,�k��,4.3,��
2019/07/06,05:20,0.731,1.035,0.698,1.275,0.915,0.424,0.732,0.699,�k�k��,4.6,��
2019/07/06,05:30,0.731,1.033,0.700,1.275,0.915,0.426,0.733,0.697,�k��,4.0,��
2019/07/06,05:40,0.729,1.032,0.699,1.276,0.914,0.426,0.734,0.699,�k�k��,4.4,��
2019/07/06,05:50,0.730,1.032,0.698,1.275,0.918,0.427,0.733,0.697,�k��,4.0,��
2019/07/06,06:00,0.728,1.033,0.700,1.274,0.918,0.426,0.733,0.696,�k��,3.7,��
2019/07/06,06:10,0.728,1.033,0.700,1.277,0.916,0.424,0.733,0.696,�k�k��,4.4,��
2019/07/06,06:20,0.730,1.032,0.700,1.276,0.918,0.424,0.731,0.697,�k�k��,4.1,�L
2019/07/06,06:30,0.728,1.033,0.699,1.275,0.918,0.424,0.732,0.698,�k�k��,4.3,�L
2019/07/06,06:40,0.729,1.031,0.700,1.275,0.916,0.423,0.732,0.696,�k�k��,6.2,�L
2019/07/06,06:50,0.728,1.031,0.699,1.276,0.916,0.422,0.733,0.695,�k�k��,4.9,�L
2019/07/06,07:00,0.729,1.029,0.697,1.276,0.915,0.424,0.731,0.694,�k�k��,6.9,�L
2019/07/06,07:10,0.727,1.026,0.698,1.274,0.913,0.423,0.731,0.695,�k�k��,7.0,�L
2019/07/06,07:20,0.728,1.026,0.698,1.272,0.912,0.424,0.731,0.694,�k�k��,7.3,�L
2019/07/06,07:30,0.726,1.026,0.697,1.276,0.913,0.423,0.730,0.693,�k,6.6,�L
2019/07/06,07:40,0.726,1.026,0.695,1.274,0.913,0.423,0.729,0.695,�k�k��,6.8,�L
2019/07/06,07:50,0.725,1.026,0.696,1.273,0.913,0.423,0.732,0.693,�k,6.4,�L
2019/07/06,08:00,0.727,1.023,0.697,1.273,0.914,0.422,0.730,0.693,�k�k��,7.2,�L
2019/07/06,08:10,0.725,1.020,0.695,1.270,0.910,0.424,0.732,0.693,�k�k��,7.0,�L
2019/07/06,08:20,0.725,1.021,0.693,1.269,0.909,0.425,0.730,0.694,�k�k��,6.2,�L
2019/07/06,08:30,0.727,1.021,0.693,1.269,0.910,0.423,0.729,0.693,�k�k��,7.2,�L
2019/07/06,08:40,0.725,1.018,0.692,1.271,0.909,0.422,0.728,0.692,�k,6.6,�L
2019/07/06,08:50,0.726,1.020,0.690,1.269,0.907,0.421,0.730,0.694,�k�k��,6.4,��
2019/07/06,09:00,0.728,1.019,0.692,1.270,0.910,0.422,0.729,0.694,�k,6.4,��
2019/07/06,09:10,0.725,1.019,0.693,1.271,0.909,0.421,0.730,0.692,�k,5.3,��
2019/07/06,09:20,0.726,1.017,0.693,1.268,0.910,0.421,0.730,0.695,�k,5.8,��
2019/07/06,09:30,0.724,1.020,0.693,1.270,0.909,0.420,0.729,0.692,�k�k��,6.1,�L
2019/07/06,09:40,0.725,1.019,0.692,1.267,0.911,0.423,0.730,0.694,�k�k��,6.2,�L
2019/07/06,09:50,0.726,1.019,0.693,1.273,0.910,0.422,0.730,0.694,�k�k��,5.6,�L
2019/07/06,10:00,0.727,1.021,0.693,1.269,0.909,0.423,0.729,0.693,�k,5.5,�L
2019/07/06,10:10,0.726,1.022,0.692,1.271,0.911,0.424,0.732,0.693,�k�k��,6.2,�L
2019/07/06,10:20,0.727,1.022,0.695,1.270,0.908,0.423,0.729,0.693,�k,7.2,�L
2019/07/06,10:30,0.725,1.018,0.693,1.269,0.912,0.422,0.731,0.695,�k�k��,5.6,�L
2019/07/06,10:40,0.727,1.021,0.693,1.269,0.910,0.421,0.731,0.693,�k�k��,7.5,�L
2019/07/06,10:50,0.727,1.023,0.693,1.272,0.912,0.423,0.732,0.694,�k�k��,7.5,�L
2019/07/06,11:00,0.728,1.023,0.695,1.272,0.913,0.422,0.729,0.694,�k�k��,7.4,��
2019/07/06,11:10,0.728,1.022,0.693,1.272,0.912,0.422,0.731,0.693,�k�k��,6.6,��
2019/07/06,11:20,0.726,1.022,0.694,1.271,0.911,0.421,0.731,0.694,�k�k��,6.2,��
2019/07/06,11:30,0.728,1.023,0.695,1.270,0.911,0.423,0.731,0.694,�k�k��,7.3,�L
2019/07/06,11:40,0.726,1.023,0.694,1.273,0.911,0.421,0.731,0.695,�k,7.6,�L
2019/07/06,11:50,0.727,1.025,0.692,1.270,0.910,0.423,0.730,0.692,�k,6.4,�L
2019/07/06,12:00,0.725,1.025,0.693,1.273,0.910,0.422,0.730,0.693,�k,6.1,�L
2019/07/06,12:10,0.727,1.024,0.694,1.272,0.912,0.422,0.730,0.695,�k�k��,7.1,�L
2019/07/06,12:20,0.727,1.022,0.693,1.271,0.911,0.424,0.731,0.696,�k�k��,8.0,�L
2019/07/06,12:30,0.728,1.023,0.694,1.270,0.913,0.422,0.732,0.693,�k�k��,7.2,�L
2019/07/06,12:40,0.727,1.024,0.696,1.271,0.913,0.421,0.731,0.693,�k�k��,7.8,�L
2019/07/06,12:50,0.727,1.026,0.697,1.271,0.911,0.424,0.730,0.694,�k�k��,7.9,�L
2019/07/06,13:00,0.726,1.025,0.697,1.271,0.911,0.423,0.730,0.694,�k�k��,8.0,�L
2019/07/06,13:10,0.729,1.024,0.698,1.271,0.912,0.421,0.730,0.695,�k�k��,7.2,�L
2019/07/06,13:20,0.726,1.023,0.698,1.271,0.913,0.421,0.732,0.696,�k,6.7,�L
2019/07/06,13:30,0.728,1.020,0.696,1.274,0.913,0.422,0.730,0.696,�k,6.6,�L
2019/07/06,13:40,0.727,1.023,0.697,1.272,0.910,0.423,0.730,0.695,�k�k��,6.6,�L
2019/07/06,13:50,0.726,1.021,0.697,1.273,0.911,0.423,0.730,0.695,�k�k��,6.2,�L
2019/07/06,14:00,0.726,1.018,0.694,1.270,0.911,0.423,0.731,0.695,�k�k��,6.7,�L
2019/07/06,14:10,0.724,1.021,0.694,1.271,0.909,0.424,0.730,0.695,�k�k��,7.4,�L
2019/07/06,14:20,0.724,1.019,0.693,1.276,0.909,0.423,0.730,0.695,�k�k��,7.5,�L
2019/07/06,14:30,0.726,1.020,0.691,1.270,0.909,0.421,0.729,0.695,�k�k��,7.6,�L
2019/07/06,14:40,0.725,1.018,0.692,1.272,0.908,0.421,0.730,0.694,�k�k��,7.4,��
2019/07/06,14:50,0.725,1.021,0.691,1.271,0.909,0.422,0.729,0.696,�k�k��,7.3,�L
2019/07/06,15:00,0.725,1.014,0.692,1.270,0.912,0.421,0.731,0.694,�k�k��,7.7,�L
2019/07/06,15:10,0.725,1.018,0.694,1.271,0.909,0.422,0.730,0.697,�k�k��,8.4,�L
2019/07/06,15:20,0.725,1.018,0.695,1.269,0.909,0.422,0.730,0.695,�k�k��,9.0,��
2019/07/06,15:30,0.726,1.020,0.692,1.271,0.907,0.421,0.730,0.694,�k�k��,9.4,��
2019/07/06,15:40,0.728,1.018,0.694,1.271,0.910,0.421,0.729,0.694,�k�k��,9.0,��
2019/07/06,15:50,0.724,1.020,0.693,1.270,0.910,0.421,0.729,0.695,�k�k��,9.0,��
2019/07/06,16:00,0.724,1.021,0.694,1.271,0.909,0.421,0.729,0.694,�k�k��,9.8,�L
2019/07/06,16:10,0.725,1.022,0.694,1.274,0.909,0.421,0.732,0.696,�k�k��,8.3,�L
2019/07/06,16:20,0.726,1.020,0.694,1.268,0.909,0.420,0.731,0.694,�k�k��,9.1,�L
2019/07/06,16:30,0.727,1.019,0.694,1.272,0.909,0.421,0.730,0.696,�k�k��,8.6,�L
2019/07/06,16:40,0.726,1.021,0.693,1.272,0.910,0.422,0.730,0.697,�k�k��,8.9,�L
2019/07/06,16:50,0.726,1.022,0.696,1.268,0.908,0.421,0.730,0.696,�k�k��,8.9,�L
2019/07/06,17:00,0.726,1.023,0.695,1.271,0.907,0.421,0.729,0.695,�k�k��,9.6,�L
2019/07/06,17:10,0.727,1.020,0.695,1.271,0.909,0.422,0.730,0.697,�k�k��,9.8,�L
2019/07/06,17:20,0.726,1.021,0.694,1.269,0.909,0.420,0.729,0.695,�k��,10.3,�L
2019/07/06,17:30,0.725,1.020,0.695,1.269,0.908,0.422,0.729,0.696,�k��,10.2,�L
2019/07/06,17:40,0.723,1.019,0.697,1.270,0.908,0.421,0.729,0.695,�k�k��,11.8,�L
2019/07/06,17:50,0.725,1.018,0.693,1.269,0.909,0.421,0.729,0.695,�k�k��,10.3,�L
2019/07/06,18:00,0.725,1.019,0.691,1.269,0.908,0.421,0.729,0.694,�k�k��,10.5,�L
2019/07/06,18:10,0.725,1.017,0.691,1.267,0.908,0.422,0.729,0.697,�k�k��,11.1,�L
2019/07/06,18:20,0.724,1.019,0.691,1.271,0.907,0.421,0.730,0.695,�k�k��,10.9,�L
2019/07/06,18:30,0.726,1.017,0.692,1.270,0.905,0.420,0.729,0.695,�k�k��,10.5,�L
2019/07/06,18:40,0.723,1.014,0.690,1.268,0.907,0.420,0.727,0.694,�k�k��,10.2,�L
2019/07/06,18:50,0.723,1.011,0.691,1.264,0.904,0.421,0.727,0.691,�k�k��,8.8,�L
2019/07/06,19:00,0.721,1.008,0.690,1.264,0.902,0.421,0.727,0.691,�k�k��,9.0,�L
2019/07/06,19:10,0.721,1.008,0.688,1.260,0.901,0.420,0.727,0.693,�k�k��,9.7,�L
2019/07/06,19:20,0.723,1.007,0.688,1.258,0.900,0.420,0.727,0.693,�k�k��,10.0,�L
2019/07/06,19:30,0.721,1.007,0.686,1.259,0.899,0.419,0.725,0.692,�k�k��,9.9,�L
2019/07/06,19:40,0.720,1.009,0.687,1.257,0.901,0.418,0.725,0.691,�k�k��,10.8,�L
2019/07/06,19:50,0.722,1.008,0.687,1.256,0.900,0.421,0.725,0.691,�k�k��,9.7,�L
2019/07/06,20:00,0.720,1.006,0.687,1.257,0.900,0.420,0.728,0.690,�k�k��,9.7,��
2019/07/06,20:10,0.720,1.008,0.688,1.258,0.900,0.418,0.726,0.690,�k�k��,10.6,�L
2019/07/06,20:20,0.720,1.008,0.688,1.256,0.899,0.420,0.727,0.692,�k�k��,9.9,�L
2019/07/06,20:30,0.719,1.010,0.687,1.256,0.898,0.419,0.726,0.691,�k�k��,11.0,�L
2019/07/06,20:40,0.720,1.007,0.687,1.254,0.898,0.418,0.725,0.690,�k�k��,11.1,�L
2019/07/06,20:50,0.719,1.007,0.690,1.253,0.897,0.418,0.724,0.693,�k��,11.0,�L
2019/07/06,21:00,0.718,1.007,0.687,1.257,0.900,0.419,0.725,0.690,�k��,10.3,��
2019/07/06,21:10,0.720,1.008,0.686,1.256,0.898,0.419,0.725,0.692,�k�k��,9.5,��
2019/07/06,21:20,0.721,1.008,0.685,1.253,0.900,0.419,0.726,0.692,�k�k��,9.9,��
2019/07/06,21:30,0.721,1.009,0.689,1.255,0.897,0.420,0.725,0.691,�k�k��,9.7,�L
2019/07/06,21:40,0.720,1.010,0.689,1.256,0.900,0.419,0.725,0.691,�k�k��,10.2,�L
2019/07/06,21:50,0.719,1.007,0.687,1.255,0.897,0.419,0.723,0.691,�k��,10.0,�L
2019/07/06,22:00,0.718,1.004,0.685,1.252,0.898,0.418,0.724,0.690,�k�k��,10.5,�L
2019/07/06,22:10,0.717,1.003,0.686,1.251,0.894,0.418,0.724,0.691,�k�k��,9.7,�L
2019/07/06,22:20,0.718,1.003,0.683,1.247,0.895,0.418,0.724,0.690,�k�k��,10.8,�L
2019/07/06,22:30,0.717,1.003,0.684,1.249,0.896,0.419,0.724,0.690,�k��,9.8,�L
2019/07/06,22:40,0.717,1.004,0.685,1.252,0.897,0.418,0.725,0.689,�k��,9.6,�L
2019/07/06,22:50,0.716,1.003,0.686,1.246,0.896,0.419,0.725,0.692,�k��,10.5,�L
2019/07/06,23:00,0.715,1.003,0.685,1.249,0.899,0.418,0.724,0.689,�k��,11.1,�L
2019/07/06,23:10,0.719,1.005,0.685,1.251,0.897,0.419,0.724,0.691,�k��,10.5,�L
2019/07/06,23:20,0.719,1.003,0.687,1.251,0.896,0.419,0.726,0.690,�k��,10.5,�L
2019/07/06,23:30,0.717,1.004,0.685,1.248,0.895,0.418,0.723,0.690,�k��,10.8,�L
2019/07/06,23:40,0.719,1.003,0.685,1.247,0.896,0.419,0.724,0.691,�k��,10.7,�L
2019/07/06,23:50,0.717,1.006,0.685,1.245,0.897,0.418,0.723,0.690,�k�k��,11.0,�L
